Regional Weather Roundup
Issued by NWS State College, PA

Home | Current Version | Previous Version | Text Only | Print | Product List | Glossary On
Versions: 1 2 3 4 5 6 7 8 9 10 11 12 13 14 15 16 17 18 19 20 21 22 23 24 25 26 27 28 29 30 31 32 33 34 35 36 37 38 39 40 41 42 43 44 45 46 47 48 49 50
000
ASUS41 KCTP 031210
RWRCTP

REGIONAL WEATHER ROUNDUP
NATIONAL WEATHER SERVICE STATE COLLEGE PA
800 AM EDT TUE AUG 03 2021

Note: "fair" indicates few or no clouds below 12,000 feet with no
significant weather and/or obstructions to visibility.

* = STATION THAT DOES NOT REPORT PRECIPITATION /E.G. RAIN...SNOW...ETC/
    THUNDER OR FOG.

PAZ002>004-007>009-013>016-020>023-029>032-031300-
WESTERN PENNSYLVANIA

CITY           SKY/WX    TMP DP  RH WIND       PRES   REMARKS
ERIE           SUNNY     60  52  74 S6        30.13S
MEADVILLE      SUNNY     59  52  77 CALM      30.15R
FRANKLIN       SUNNY     52  52 100 CALM      30.17R
NEW CASTLE     FAIR      54  52  93 CALM      30.15S
BEAVER COUNTY  SUNNY     60  51  73 CALM      30.14S
BUTLER         SUNNY     57  53  86 NE5       30.15S
PITTSBURGH INT MOSUNNY   60  52  74 E3        30.12S
PITTSBURGH     MOSUNNY   59  51  75 NE3       30.12S
INDIANA*       SUNNY     55  54  94 CALM      30.18S
LATROBE        PTSUNNY   57  57 100 CALM      30.14S
WASHINGTON CO* SUNNY     59  56  89 NE5       30.15S
$$

PAZ004>006-010>012-017>019-024>028-033>037-041-042-045-046-049>053-031300-
CENTRAL PENNSYLVANIA

CITY           SKY/WX    TMP DP  RH WIND       PRES   REMARKS
BRADFORD       SUNNY     50  46  86 CALM      30.17S
ST MARYS       MOSUNNY   52  50  93 CALM      30.20S
DUBOIS         SUNNY     56  49  77 E3        30.16S
CLEARFIELD     SUNNY     53  50  89 CALM      30.17R
JOHNSTOWN      MOSUNNY   59  51  75 CALM      30.16S
SOMERSET       CLOUDY    54  50  87 CALM      30.16F
ALTOONA        PTSUNNY   56  50  80 CALM      30.15S
STATE COLLEGE  MOSUNNY   54  54 100 CALM      30.15F
REEDSVILLE     FAIR      54  54 100 CALM      30.14S
WELLSBORO      FOG       50  50 100 CALM      30.16S VSB<1/4
WILLIAMSPORT   CLOUDY    55  53  93 CALM      30.14S FOG
SELINSGROVE    PTSUNNY   58  56  93 CALM      30.14F
FT INDIANTOWN  PTSUNNY   58  54  86 CALM      30.14S
CAPITAL CITY   PTSUNNY   65  55  70 E6        30.13S
HARRISBURG     PTSUNNY   63  56  78 CALM      30.13S
YORK           CLOUDY    60  57  89 CALM      30.13S
$$

PAZ038>040-043-044-047-048-054-055-060>062-067>071-031300-
EASTERN PENNSYLVANIA

CITY           SKY/WX    TMP DP  RH WIND       PRES   REMARKS
TOWANDA        SUNNY     55  54  94 CALM      30.19S
SCRANTON       MOSUNNY   57  49  74 E3        30.16S
MOUNT POCONO   PTSUNNY   55  53  93 CALM      30.17S
HAZLETON       FAIR      55  52  88 CALM      30.19S
LEHIGHTON      FAIR      54  54 100 CALM      30.17S
ALLENTOWN      CLOUDY    58  53  84 CALM      30.14S
QN CITY/ALNTWN FAIR      59  55  88 CALM      30.15F
QUAKERTOWN*    SUNNY     59  59 100 CALM      30.14S
PERKASIE*      CLOUDY    57  57 100 CALM      30.15S
DOYLESTOWN     CLOUDY    62  54  74 CALM      30.13S
READING        CLOUDY    59  56  89 N3        30.13S
LANCASTER      CLOUDY    62  55  77 CALM      30.14S
COATESVILLE    CLOUDY    63  54  72 CALM      30.15S
WEST CHESTER   CLOUDY    64  54  68 CALM      30.14S
POTTSTOWN        N/A     58  54  86 CALM      30.15S
BLUE BELL      CLOUDY    60  58  93 CALM      30.14S
NORTH PHILA    CLOUDY    65  56  72 CALM      30.14S
PHILADELPHIA   CLOUDY    68  57  68 N5        30.12S
$$



USA.gov is the U.S. government's official web portal to all federal, state and local government web resources and services.